Regional Weather Roundup
Issued by NWS

Home | Current Version | Previous Version | Graphics & Text | Print | Product List | Glossary Off
Versions: 1 2 3 4 5 6 7 8 9 10 11 12 13 14 15 16 17 18 19 20 21 22 23 24 25 26 27 28 29 30 31 32 33 34 35 36 37 38 39 40 41 42 43 44 45 46 47 48 49 50

000
ASUS43 KTOP 291508
RWRKS

WEATHER ROUNDUP FOR KANSAS
NATIONAL WEATHER SERVICE GOODLAND KS
1000 AM CDT FRI MAY 29 2015

NOTE:  "FAIR" INDICATES FEW OR NO CLOUDS BELOW 12,000 FEET WITH NO
SIGNIFICANT WEATHER AND/OR OBSTRUCTIONS TO VISIBILITY.

KSZ001>006-013>018-027>032-041>047-291600-
NORTHWEST KANSAS

CITY           SKY/WX    TMP DP  RH WIND       PRES   REMARKS
GOODLAND       MOSUNNY   62  52  69 N18G28    30.09R
HAYS           PTSUNNY   66  54  63 NW9       30.00S
HILL CITY      MOSUNNY   68  57  68 N13       30.01R
RUSSELL        CLOUDY    66  57  72 N5        29.99R
$$

KSZ061>065-074>080-084>089-291600-
SOUTHWEST KANSAS

CITY           SKY/WX    TMP DP  RH WIND       PRES   REMARKS
DODGE CITY     PTSUNNY   65  55  70 N10       30.02R
ELKHART          N/A     66  50  56 N13         N/A
GARDEN CITY    MOSUNNY   64  55  72 N14       30.04R
GREAT BEND     CLOUDY    66  57  72 N7        29.98S
LIBERAL        SUNNY     64  55  72 CALM      30.06R
PRATT          CLOUDY    63  57  82 E3        30.00S
$$

KSZ066>073-081>083-090>101-291600-
SOUTHEAST KANSAS

CITY           SKY/WX    TMP DP  RH WIND       PRES   REMARKS
CHANUTE        LGT RAIN  68  66  93 SE7       30.01F
COFFEYVILLE    RAIN      69  68  96 S6        30.02R FOG
HUTCHINSON     CLOUDY    67  62  84 E5        29.98R
MEDICINE LODGE   N/A     68  62  81 E6        29.97S
NEWTON         CLOUDY    66  61  82 S9        29.99S
PARSONS        LGT RAIN  69  68  96 VRB6      30.03S
WICHITA INTL   CLOUDY    70  65  84 SE10      29.96S
WICHITA JABRA  CLOUDY    68  65  90 SE8       29.97F
WICHITA MCCONL CLOUDY    69  66  91 SE10      29.97F
WINFIELD       CLOUDY    71  63  75 S6        29.98S
$$

KSZ007>012-019>026-033>040-048>060-102>105-291600-
NORTHEAST KANSAS

CITY           SKY/WX    TMP DP  RH WIND       PRES   REMARKS
CONCORDIA      CLOUDY    65  60  84 W6        29.96F
EMPORIA        LGT RAIN  65  64  97 SE12      30.00S
LAWRENCE       CLOUDY    68  63  84 S12       29.98S
MANHATTAN      CLOUDY    67  65  93 SW3       29.96R
MARYSVILLE     CLOUDY    68  64  88 SW8       29.96R
OLATHE IND     LGT RAIN  67  63  87 S13       30.00S
OLATHE EXE     CLOUDY    68  64  87 S10       30.00R
SALINA         CLOUDY    67  61  81 S3        29.97R
TOPEKA BILLARD CLOUDY    70  64  81 S14G20    29.96S
TOPEKA FORBES  CLOUDY    69  64  84 S13G21    29.97S
$$



USA.gov is the U.S. government's official web portal to all federal, state and local government web resources and services.